Location: La Silve
(44.2414°N, 5.8889°E)
Time: 17:47:57
(UTC+00:00)

Okean O Rocket - Pass Details

Date: 01 December 2020
Orbit: 622 x 645 km, 98.2° (Epoch: 23 January)

Event Time Altitude Azimuth Distance (km) Brightness Sun altitude
Rises 17:55:50 0° 195° (SSW) 2,896 5.4 -20.3°
Reaches altitude 10° 17:58:19 10° 209° (SSW) 1,998 4.7 -20.8°
Maximum altitude 18:01:55 25° 265° (W) 1,269 3.9 -21.4°
Drops below altitude 10° 18:05:35 10° 321° (NW) 2,022 4.5 -22.1°
Sets 18:08:07 0° 335° (NNW) 2,940 5.2 -22.5°
